Location: Ashtead
(51.3000°N, 0.3000°W)
Time: 11:48:30
(UTC+00:00)

GP-B - Pass Details

Date: 26 September 2023
Orbit: 626 x 631 km, 89.8° (Epoch: 29 November)

Event Time Altitude Azimuth Distance (km) Brightness Sun altitude
Rises 04:05:01 0° 168° (SSE) 2,907 6.4 -17.4°
Reaches altitude 10° 04:07:13 10° 166° (SSE) 2,006 5.6 -17.0°
Maximum altitude 04:11:35 65° 85° (E) 698 3.5 -16.4°
Drops below altitude 10° 04:16:00 10° 4° (N) 2,026 6.0 -15.8°
Sets 04:18:14 0° 2° (N) 2,940 6.8 -15.4°
